Jackson, WY

7:09 PM MDT on April 20, 2018 (GMT -0600)
Jackson Hole

Weather History for KJAC - December, 2013

Change the Weather History Date:

Sunday, December 29, 2013

  Actual Average Record
Temperature  
Mean Temperature 8 °F -  
Max Temperature 24 °F 19 °F 47 °F (1980)
Min Temperature -7 °F -5 °F -26 °F (1978)
Degree Days  
Heating Degree Days 56    
Moisture  
Dew Point 5 °F    
Average Humidity 86    
Maximum Humidity 100    
Minimum Humidity 73    
Precipitation  
Precipitation 0.00 in - - ()
Sea Level Pressure  
Sea Level Pressure 30.22 in    
Wind  
Wind Speed 5 mph (North)    
Max Wind Speed 21 mph    
Max Gust Speed -    
Visibility 10 miles    
Events      
Averages and records for this station are not official NWS values.
T = Trace of Precipitation, MM = Missing Value Source: NWS Daily Summary

Daily Weather History Graph

Daily Weather History Graph

Search for Another Location

Airport or City:

Astronomy

Dec. 29, 2013 Rise Set
Actual Time 7:56 AM MST 4:54 PM MST
Civil Twilight 7:23 AM MST 5:27 PM MST
Nautical Twilight 6:47 AM MST 6:03 PM MST
Astronomical Twilight 6:12 AM MST 6:38 PM MST
Moon 4:41 AM MST (12/29) 2:37 PM MST (12/29)
Length of Visible Light 10h 04m
Length of Day
8h 58m
Waning Crescent, 10% of the Moon is Illuminated
Dec 29
Waning Crescent
Jan 1
New
Jan 7
First Quarter
Jan 15
Full
Jan 23
Last Quarter

Hourly Weather History & Observations

Time (MST) Temp. Windchill Dew Point Humidity Pressure Visibility Wind Dir Wind Speed Gust Speed Precip Events Conditions
12:15 AM 10.4 °F - 8.6 °F 92% 30.24 in 10.0 mi Calm Calm - N/A   Clear
12:35 AM 10.4 °F - 8.6 °F 92% 30.23 in 10.0 mi Calm Calm - N/A   Clear
12:55 AM 8.6 °F 2.0 °F 6.8 °F 92% 30.23 in 10.0 mi ENE 3.5 mph - N/A   Clear
1:15 AM 6.8 °F -6.9 °F 6.8 °F 100% 30.23 in 10.0 mi North 9.2 mph - N/A   Clear
1:35 AM 5.0 °F -2.1 °F 3.2 °F 92% 30.24 in 10.0 mi NE 3.5 mph - N/A   Clear
1:55 AM 5.0 °F -5.6 °F 3.2 °F 92% 30.24 in 10.0 mi NNE 5.8 mph - N/A   Clear
2:15 AM 5.0 °F -2.1 °F 3.2 °F 92% 30.25 in 10.0 mi NNE 3.5 mph - N/A   Clear
2:35 AM 1.4 °F -6.2 °F -0.4 °F 92% 30.25 in 10.0 mi North 3.5 mph - N/A   Clear
2:55 AM 1.4 °F -11.3 °F -0.4 °F 92% 30.25 in 10.0 mi North 6.9 mph - N/A   Clear
3:15 AM 1.4 °F -9.9 °F -0.4 °F 92% 30.25 in 10.0 mi North 5.8 mph - N/A   Clear
3:35 AM -0.4 °F -12.0 °F -2.2 °F 92% 30.26 in 10.0 mi North 5.8 mph - N/A   Clear
3:55 AM -2.2 °F -14.2 °F -5.8 °F 85% 30.26 in 10.0 mi NNW 5.8 mph - N/A   Clear
4:15 AM -4.0 °F -16.3 °F -5.8 °F 92% 30.26 in 10.0 mi NNE 5.8 mph - N/A   Clear
4:35 AM -4.0 °F -17.8 °F -5.8 °F 92% 30.26 in 10.0 mi North 6.9 mph - N/A   Clear
4:55 AM -4.0 °F -20.2 °F -5.8 °F 92% 30.25 in 10.0 mi North 9.2 mph - N/A   Clear
5:15 AM -5.8 °F -22.4 °F -7.6 °F 92% 30.24 in 10.0 mi North 9.2 mph - N/A   Clear
5:35 AM -4.0 °F -17.8 °F -5.8 °F 92% 30.25 in 10.0 mi North 6.9 mph - N/A   Clear
5:55 AM -5.8 °F -14.5 °F -5.8 °F 100% 30.25 in 10.0 mi NNE 3.5 mph - N/A   Clear
6:15 AM -5.8 °F -14.5 °F -7.6 °F 92% 30.26 in 10.0 mi North 3.5 mph - N/A   Clear
6:35 AM -4.0 °F -17.8 °F -5.8 °F 92% 30.27 in 10.0 mi North 6.9 mph - N/A   Clear
6:51 AM -5.8 °F -22.4 °F -7.6 °F 92% 30.27 in 10.0 mi North 9.2 mph - N/A   Clear
7:55 AM -7.6 °F -20.6 °F -9.4 °F 92% 30.26 in 10.0 mi North 5.8 mph - N/A   Scattered Clouds
8:51 AM -2.2 °F -15.6 °F -5.8 °F 85% 30.27 in 10.0 mi North 6.9 mph - N/A   Mostly Cloudy
9:17 AM -0.4 °F -12.0 °F -2.2 °F 92% 30.27 in 10.0 mi North 5.8 mph - N/A   Overcast
9:53 AM 3.2 °F -4.2 °F 1.4 °F 92% 30.27 in 10.0 mi North 3.5 mph - N/A   Mostly Cloudy
10:53 AM 8.6 °F - 3.2 °F 79% 30.27 in 10.0 mi Calm Calm - N/A   Mostly Cloudy
11:51 AM 12.2 °F - 6.8 °F 79% 30.24 in 10.0 mi Calm Calm - N/A   Scattered Clouds
12:53 PM 15.8 °F - 8.6 °F 73% 30.21 in 10.0 mi Calm Calm - N/A   Clear
1:51 PM 17.6 °F - 10.4 °F 73% 30.19 in 10.0 mi Calm Calm - N/A   Clear
2:51 PM 19.4 °F 14.3 °F 12.2 °F 74% 30.15 in 10.0 mi South 3.5 mph - N/A   Scattered Clouds
3:51 PM 23.0 °F 12.4 °F 15.8 °F 74% 30.14 in 10.0 mi South 10.4 mph - N/A   Mostly Cloudy
5:54 PM 21.2 °F 5.6 °F 15.8 °F 80% 30.11 in 10.0 mi South 20.7 mph - N/A   Mostly Cloudy
6:54 PM 21.2 °F 11.7 °F 15.8 °F 80% 30.13 in 10.0 mi South 8.1 mph - N/A   Mostly Cloudy
9:15 PM 23.0 °F 13.9 °F 17.6 °F 80% 30.15 in 10.0 mi SSW 8.1 mph - N/A   Overcast
9:35 PM 23.0 °F 12.4 °F 17.6 °F 80% 30.15 in 10.0 mi SSW 10.4 mph - N/A   Overcast
9:55 PM 23.0 °F 13.1 °F 17.6 °F 80% 30.16 in 10.0 mi South 9.2 mph - N/A   Overcast
10:15 PM 24.8 °F 11.5 °F 17.6 °F 74% 30.15 in 10.0 mi South 17.3 mph - N/A   Overcast
10:35 PM 24.8 °F 13.4 °F 19.4 °F 80% 30.15 in 8.0 mi SSW 12.7 mph - N/A   Overcast
10:55 PM 24.8 °F 13.4 °F 17.6 °F 74% 30.15 in 10.0 mi South 12.7 mph - N/A   Overcast
11:15 PM 23.0 °F 17.0 °F 19.4 °F 86% 30.16 in 10.0 mi SW 4.6 mph - N/A   Overcast
11:35 PM 24.8 °F 16.1 °F 17.6 °F 74% 30.16 in 10.0 mi SSW 8.1 mph - N/A   Overcast
11:55 PM 24.8 °F 16.1 °F 17.6 °F 74% 30.16 in 10.0 mi South 8.1 mph - N/A   Overcast